| time (UTC) | temp F | wind direction | speed MPH | gust MPH | rain 1hr in | rain 24hr in | rain mn in | humidity % | barometer mb |
| 20260905204113 | 101 | 65 | 0.0 | 6.0 | 0.00 | 0.00 | 0.00 | 37 | 1009.0 |
| 20260905202612 | 102 | 187 | 2.0 | 5.0 | 0.00 | 0.00 | 0.00 | 35 | 1009.3 |
| 20260905195610 | 100 | 131 | 0.0 | 6.0 | 0.00 | 0.00 | 0.00 | 38 | 1009.8 |
| 20260905194109 | 102 | 210 | 0.0 | 6.0 | 0.00 | 0.00 | 0.00 | 37 | 1010.0 |
| 20260905192609 | 102 | 138 | 0.0 | 7.0 | 0.00 | 0.00 | 0.00 | 37 | 1010.2 |
| 20260905191108 | 101 | 131 | 0.0 | 5.0 | 0.00 | 0.00 | 0.00 | 38 | 1010.2 |
| 20260905185606 | 100 | 159 | 0.0 | 6.0 | 0.00 | 0.00 | 0.00 | 39 | 1010.5 |
| 20260905184105 | 100 | 139 | 0.0 | 6.0 | 0.00 | 0.00 | 0.00 | 39 | 1010.7 |
| 20260905182605 | 100 | 143 | 0.0 | 6.0 | 0.00 | 0.00 | 0.00 | 40 | 1010.9 |
| 20260905175603 | 100 | 110 | 2.0 | 5.0 | 0.00 | 0.00 | 0.00 | 41 | 1011.0 |
| 20260905174102 | 99 | 142 | 3.0 | 4.0 | 0.00 | 0.00 | 0.00 | 41 | 1011.1 |
| 20260905172601 | 98 | 203 | 0.0 | 3.0 | 0.00 | 0.00 | 0.00 | 42 | 1011.3 |
| 20260905165559 | 97 | 218 | 0.0 | 5.0 | 0.00 | 0.00 | 0.00 | 44 | 1011.5 |
| 20260905164058 | 97 | 186 | 0.0 | 6.0 | 0.00 | 0.00 | 0.00 | 44 | 1011.5 |
| 20260905162557 | 96 | 218 | 0.0 | 5.0 | 0.00 | 0.00 | 0.00 | 46 | 1011.5 |
| 20260905155555 | 94 | 134 | 0.0 | 5.0 | 0.00 | 0.00 | 0.00 | 49 | 1011.5 |
| 20260905154054 | 93 | 176 | 0.0 | 2.0 | 0.00 | 0.00 | 0.00 | 50 | 1011.5 |
| 20260905152553 | 92 | 104 | 2.0 | 6.0 | 0.00 | 0.00 | 0.00 | 52 | 1011.4 |
| 20260905145551 | 89 | 145 | 4.0 | 4.0 | 0.00 | 0.00 | 0.00 | 58 | 1011.3 |
| 20260905142549 | 86 | 156 | 1.0 | 5.0 | 0.00 | 0.00 | 0.00 | 62 | 1011.2 |
| 20260905141048 | 84 | 115 | 0.0 | 6.0 | 0.00 | 0.00 | 0.00 | 64 | 1011.0 |
| 20260905132546 | 80 | 162 | 0.0 | 6.0 | 0.00 | 0.00 | 0.00 | 71 | 1011.0 |
| 20260905131044 | 79 | 129 | 4.0 | 4.0 | 0.00 | 0.00 | 0.00 | 73 | 1010.9 |
| 20260905125544 | 78 | 162 | 0.0 | 2.0 | 0.00 | 0.00 | 0.00 | 74 | 1010.7 |
| 20260905124042 | 77 | 140 | 0.0 | 0.0 | 0.00 | 0.00 | 0.00 | 75 | 1010.6 |
| 20260905122542 | 77 | 131 | 0.0 | 0.0 | 0.00 | 0.00 | 0.00 | 75 | 1010.5 |
| 20260905121040 | 76 | 150 | 0.0 | 0.0 | 0.00 | 0.00 | 0.00 | 76 | 1010.4 |
| 20260905115540 | 76 | 145 | 0.0 | 1.0 | 0.00 | 0.00 | 0.00 | 76 | 1010.3 |
| 20260905114039 | 77 | 197 | 0.0 | 0.0 | 0.00 | 0.00 | 0.00 | 74 | 1010.5 |
| 20260905112538 | 77 | 129 | 0.0 | 0.0 | 0.00 | 0.00 | 0.00 | 74 | 1010.3 |
| 20260905105536 | 77 | 147 | 0.0 | 0.0 | 0.00 | 0.00 | 0.00 | 75 | 1010.2 |
| 20260905102534 | 76 | 140 | 0.0 | 0.0 | 0.00 | 0.00 | 0.00 | 75 | 1010.4 |
| 20260905101033 | 77 | 155 | 0.0 | 0.0 | 0.00 | 0.00 | 0.00 | 74 | 1010.4 |
| 20260905094031 | 78 | 158 | 0.0 | 1.0 | 0.00 | 0.00 | 0.00 | 72 | 1010.6 |
| 20260905092530 | 78 | 147 | 0.0 | 0.0 | 0.00 | 0.00 | 0.00 | 72 | 1010.7 |
| 20260905091029 | 78 | 148 | 0.0 | 0.0 | 0.00 | 0.00 | 0.00 | 71 | 1010.7 |
| 20260905085528 | 79 | 147 | 0.0 | 1.0 | 0.00 | 0.00 | 0.00 | 71 | 1010.7 |
| 20260905084027 | 79 | 142 | 0.0 | 0.0 | 0.00 | 0.00 | 0.00 | 70 | 1010.7 |
| 20260905082526 | 80 | 143 | 0.0 | 0.0 | 0.00 | 0.00 | 0.00 | 68 | 1010.7 |
| 20260905081025 | 81 | 148 | 0.0 | 1.0 | 0.00 | 0.00 | 0.00 | 67 | 1010.5 |
| 20260905075524 | 81 | 140 | 0.0 | 1.0 | 0.00 | 0.00 | 0.00 | 67 | 1010.6 |
| 20260905074023 | 82 | 193 | 0.0 | 1.0 | 0.00 | 0.00 | 0.00 | 66 | 1010.6 |
| 20260905072523 | 82 | 129 | 0.0 | 5.0 | 0.00 | 0.00 | 0.00 | 66 | 1010.5 |
| 20260905065520 | 83 | 148 | 0.0 | 4.0 | 0.00 | 0.00 | 0.00 | 65 | 1010.3 |
| 20260905064019 | 83 | 169 | 0.0 | 3.0 | 0.00 | 0.00 | 0.00 | 64 | 1010.1 |
| 20260905062518 | 83 | 153 | 0.0 | 2.0 | 0.00 | 0.00 | 0.00 | 64 | 1010.1 |
| 20260905061017 | 84 | 116 | 0.0 | 5.0 | 0.00 | 0.00 | 0.00 | 63 | 1010.0 |
| 20260905055517 | 84 | 126 | 1.0 | 5.0 | 0.00 | 0.00 | 0.00 | 63 | 1009.8 |
| 20260905054016 | 84 | 152 | 0.0 | 4.0 | 0.00 | 0.00 | 0.00 | 62 | 1009.9 |
| 20260905052515 | 84 | 117 | 0.0 | 6.0 | 0.00 | 0.00 | 0.00 | 62 | 1009.9 |
| 20260905051014 | 85 | 139 | 0.0 | 6.0 | 0.00 | 0.00 | 0.00 | 62 | 1010.0 |
| 20260905045513 | 85 | 131 | 0.0 | 5.0 | 0.00 | 0.00 | 0.00 | 62 | 1010.1 |
| 20260905044012 | 85 | 132 | 0.0 | 5.0 | 0.00 | 0.00 | 0.00 | 62 | 1010.3 |
| 20260905042511 | 85 | 140 | 0.0 | 1.0 | 0.00 | 0.00 | 0.00 | 61 | 1010.5 |
| 20260905035509 | 85 | 140 | 0.0 | 5.0 | 0.00 | 0.00 | 0.00 | 61 | 1010.3 |
| 20260905034008 | 85 | 150 | 0.0 | 1.0 | 0.00 | 0.00 | 0.00 | 61 | 1010.4 |
| 20260905032507 | 85 | 142 | 0.0 | 1.0 | 0.00 | 0.00 | 0.00 | 61 | 1010.5 |
| 20260905025505 | 86 | 132 | 0.0 | 1.0 | 0.00 | 0.00 | 0.00 | 59 | 1010.1 |
| 20260905024004 | 86 | 145 | 0.0 | 1.0 | 0.00 | 0.00 | 0.00 | 59 | 1009.9 |
| 20260905022503 | 87 | 150 | 0.0 | 1.0 | 0.00 | 0.00 | 0.00 | 58 | 1009.5 |
| 20260905021002 | 87 | 148 | 0.0 | 1.0 | 0.00 | 0.00 | 0.00 | 57 | 1009.2 |
| 20260905015501 | 88 | 153 | 0.0 | 0.0 | 0.00 | 0.00 | 0.00 | 55 | 1009.0 |
| 20260905014000 | 89 | 151 | 0.0 | 0.0 | 0.00 | 0.00 | 0.00 | 54 | 1008.7 |
| 20260905012459 | 90 | 147 | 0.0 | 1.0 | 0.00 | 0.00 | 0.00 | 52 | 1008.6 |
| 20260905010958 | 91 | 146 | 0.0 | 1.0 | 0.00 | 0.00 | 0.00 | 50 | 1008.7 |
| 20260905005457 | 92 | 145 | 0.0 | 5.0 | 0.00 | 0.00 | 0.00 | 49 | 1008.4 |
| 20260904230951 | 98 | 117 | 0.0 | 6.0 | 0.00 | 0.00 | 0.00 | 43 | 1008.2 |
| 20260904225450 | 98 | 158 | 5.0 | 6.0 | 0.00 | 0.00 | 0.00 | 41 | 1008.3 |
| 20260904223949 | 99 | 181 | 3.0 | 6.0 | 0.00 | 0.00 | 0.00 | 41 | 1008.2 |
| 20260904222448 | 99 | 167 | 4.0 | 7.0 | 0.00 | 0.00 | 0.00 | 42 | 1008.2 |
| 20260904215446 | 99 | 172 | 0.0 | 9.0 | 0.00 | 0.00 | 0.00 | 42 | 1008.1 |
| 20260904212444 | 98 | 106 | 1.0 | 7.0 | 0.00 | 0.00 | 0.00 | 42 | 1008.3 |
| 20260904205442 | 99 | 122 | 0.0 | 7.0 | 0.00 | 0.00 | 0.00 | 43 | 1008.6 |